Hourly Data Report for October 10, 2014

All times are specified in Local Standard Time (LST). Add 1 hour to adjust for Daylight Saving Time where and when it is observed.

ST LEONARD CS
NEW BRUNSWICK

47°09'28.050" N
67°49'55.014" W
245.00 m
810I001
71019
WIY

Download Data

Hourly Data (October 2014)
Hourly Data Report for October 10, 2014
Temp Definition
°C
Dew Point Temp Definition
°C
Rel Hum Definition
%
Wind Dir Definition
10's deg

Wind Spd Definition
km/h
Visibility Definition
km
Stn Press Definition
kPa
Hmdx Definition


Wind Chill Definition


Weather Definition


TIME
00:00 3.2 2.1 93 21 6   97.66     LegendNANA
01:00 4.1 2.6 90 20 6   97.64     LegendNANA
02:00 4.5 2.3 86 22 7   97.65     LegendNANA
03:00 4.8 1.8 81 22 10   97.68     LegendNANA
04:00 4.9 1.6 79 22 5   97.69     LegendNANA
05:00 4.8 1.4 79 23 7   97.73     LegendNANA
06:00 4.8 1.5 79 23 4   97.78     LegendNANA
07:00 4.6 1.4 80 24 8   97.81     LegendNANA
08:00 5.9 2.0 76 25 9   97.92     LegendNANA
09:00 7.9 2.4 69 26 10   97.98     LegendNANA
10:00 9.7 3.0 63 26 9   98.02     LegendNANA
11:00 10.2 3.1 62 25 8   98.07     LegendNANA
12:00 9.1 3.2 66 25 5   98.10     LegendNANA
13:00 9.5 3.4 65 25 5   98.14     LegendNANA
14:00 9.8 3.5 65 25 3   98.16     LegendNANA
15:00 10.4 3.4 62 25 4   98.17     LegendNANA
16:00 9.9 3.5 64 25 4   98.23     LegendNANA
17:00 9.7 3.6 66 25 2   98.29     LegendNANA
18:00 8.8 3.8 71 25 2   98.39     LegendNANA
19:00 7.3 3.4 76 24 2   98.48     LegendNANA
20:00 6.7 3.3 79 27 2   98.52     LegendNANA
21:00 6.9 3.6 79 27 2   98.55     LegendNANA
22:00 6.8 3.6 80 27 4   98.60     LegendNANA
23:00 5.6 3.3 85 27 2   98.64     LegendNANA

Notes on Data Quality.

Legend

  • E = Estimated
  • M = Missing
  • NA = Not Available
  • ‡ = Partner data that is not subject to review by the National Climate Archives
Date modified: